Weather Roundup
Issued by NWS Springfield, MO

Home | Current Version | Previous Version | Text Only | Print | Product List | Glossary On
Versions: 1 2 3 4 5 6 7 8 9 10 11 12 13 14 15 16 17 18 19 20 21 22 23 24 25 26 27 28 29 30 31 32 33 34 35 36 37 38 39 40 41 42 43 44 45 46 47 48 49 50
449
NZUS99 KSGF 031207
HRRSGF

HOURLY WEATHER
NATIONAL WEATHER SERVICE SPRINGFIELD MO
600 AM CST SAT DEC 03 2016

......SGF CWA......

CITY           SKY/WX    TMP DP  RH WIND       PRES   REMARKS
SPRINGFIELD    MOCLDY    43  27  53 SE8       30.24F
6HR MIN TEMP:  43; 6HR MAX TEMP:  46;

JOPLIN         CLOUDY    45  29  53 E8        30.22F
6HR MIN TEMP:  44; 6HR MAX TEMP:  46;

WEST PLAINS    CLOUDY    40  31  70 E6        30.31F
6HR MIN TEMP:  40; 6HR MAX TEMP:  42;

ROLLA          CLOUDY    32  27  81 SE6       30.30R WCI  26
6HR MIN TEMP:  29; 6HR MAX TEMP:  35;

OSAGE BEACH    CLOUDY    32  27  81 NE5       30.32F WCI  27
BRANSON        CLOUDY    41  32  70 E6        30.27S

......SURROUNDING SGF CWA......

CITY           SKY/WX    TMP DP  RH WIND       PRES   REMARKS
CHANUTE        CLOUDY    42  27  55 E7        30.23F
PARSONS        PTCLDY    43  29  57 E5        30.22F
COFFEYVILLE    CLOUDY    45  31  58 E6        30.22S
EMPORIA        CLOUDY    36  29  75 E7        30.24F WCI  30
GROVE OK       CLOUDY    46  36  66 E3        30.23S
ROGERS AR      MOCLDY    46  34  62 E8        30.22F
SILOAM SPRINGS PTCLDY    46  30  53 CALM      30.21F
HARRISON AR    CLOUDY    42  35  76 E3        30.27S
NEAR YELLVILLE CLOUDY    43  30  61 E3        30.26S

......KANSAS AND MISSOURI......

CITY           SKY/WX    TMP DP  RH WIND       PRES   REMARKS
KANSAS CTY INT PTCLDY    30  25  81 NE8       30.29F WCI  22
DOWNTOWN KC    CLOUDY    32  28  85 NE5       30.30F WCI  27
COLUMBIA       CLOUDY    32  27  81 E6        30.32F WCI  26
SEDALIA        MOCLDY    32  26  78 E3        30.32S
ST JOSEPH      PTCLDY    23  20  88 N3        30.31F
ST LOUIS       CLOUDY    33  27  78 CALM      30.36S
SPIRIT OF STL  PTCLDY    28  27  96 CALM      30.36S
KIRKSVILLE     PTCLDY    27  25  92 NE6       30.34F WCI  20
WICHITA        LGT RAIN  42  28  57 E7        30.20F
TOPEKA         CLOUDY    30  26  85 CALM      30.28F
OLATHE         CLOUDY    34  28  79 NE7       30.28F WCI  28

......TENNESSEE......

CITY           SKY/WX    TMP DP  RH WIND       PRES   REMARKS
MEMPHIS        CLOUDY    47  32  56 E8        30.29
NASHVILLE      CLOUDY    37  30  75 CALM      30.36R

......ARKANSAS.......

CITY           SKY/WX    TMP DP  RH WIND       PRES   REMARKS
FAYETTEVILLE   CLOUDY    44  35  70 E5        30.21F
FT SMITH       CLOUDY    48  39  71 E6        30.22F
LITTLE ROCK    CLOUDY    46  40  79 NE9       30.27R

......OKLAHOMA.......

CITY           SKY/WX    TMP DP  RH WIND       PRES   REMARKS
TULSA          CLOUDY    46  34  62 CALM      30.20S
PONCA CITY     CLOUDY    43  34  70 CALM      30.20F
MCALESTER      CLOUDY    47  41  80 CALM      30.20R
OKLAHOMA CITY  LGT RAIN  46  44  93 NE6       30.18S

......IOWA............

CITY           SKY/WX    TMP DP  RH WIND       PRES   REMARKS
DES MOINES     CLOUDY    36  28  73 W3        30.34F
QUAD CITIES    CLOUDY    34  23  64 NW10      30.36F WCI  26

......ILLINOIS........

CITY           SKY/WX    TMP DP  RH WIND       PRES   REMARKS
QUINCY         PTCLDY    30  29  96 NE7       30.35S WCI  23
CHICAGO        CLOUDY    32  22  66 W6        30.34S WCI  26




USA.gov is the U.S. government's official web portal to all federal, state and local government web resources and services.